Погода в Вайде-Губе

Россия / Мурманская область     69°56′53″N   31°56′45″E
темп.,
°C
ветер,
м/с
пор.,
м/с
влажн.,
%
обл.,
%
осадки,
мм/ч
давл.,
гПа
погр.,
м
12 мая, ср
ср1200:00+5с2393100 1.3 1013217
03:00+4с5696100 1.4 1015166
06:00+4ссв4493100 0.1 1018190
09:00+4ссв1191100 0.2 102071
12:00+4юв118985 0.1 1021104
15:00+4вюв3390100 0.1 1022148
18:00+5юв4588100 0.0 102176
21:00+5юв7990100 0.0 1019131
13 мая, чт
чт1300:00+5юв5690100 0.0 101654
03:00+6ююз4593100 0.0 101551
06:00+5юз4496100 0.0 101532
09:00+5сз3396100 0.4 101542
12:00+5с5696100 2.3 1015116
15:00+4с5796100 5.4 1016170
18:00+4с7997100 3.1 1016217
21:00+4с6797100 6.4 1017240
14 мая, пт
пт1400:00+4с91095100 0.4 1019554
03:00+3ссв91089100 0.5 1020720
06:00+3св9984100 0.2 1021743
09:00+3св9984100 0.4 1022733
12:00+3всв9981100 0.2 1023807
15:00+3всв10984100 0.4 1023808
18:00+2в91085100 0.3 1023793
21:00+2в9975100 0.5 1023862
15 мая, сб
сб1500:00+2в8876100 0.1 1023866
03:00+2в7773100 0.1 1023866
06:00+2в8871100 0.1 1023929
09:00+2в8872100 0.1 10231113
12:00+2в8874100 0.1 1023976
15:00+2вюв9977100 0.1 1023924
18:00+2вюв101077100 0.0 1022828
21:00+2вюв101174100 0.0 1021838
16 мая, вс
вс1600:00+1вюв101191100 0.1 1021781
03:00+1вюв101297100 1.0 1020727
06:00+1в111297100 0.9 1019714
09:00+1в111295100 1.3 1018773
12:00+2в11128890 0.2 1018848
15:00+2в111187100 0.3 1018884
18:00+1в101298100 0.6 1018667
21:00+1вюв101196100 1.1 1018745